Yellow Mule RAWS (NWS)

Jump to table bottom
Date/Time Wind Direction Wind Speed knots Wind Gust knots RH % Accumulated Precip Inches Air Temp Fahrenheit
2021-10-15 18:04 SSW 17 26 80 9.74 26
2021-10-15 17:04 SSW 17 27 82 9.74 26
2021-10-15 16:04 S 8 27 82 9.74 26
2021-10-15 15:04 S 15 23 85 9.74 25
2021-10-15 14:04 S 17 29 85 9.74 24
2021-10-15 13:04 S 12 20 88 9.74 23
2021-10-15 12:04 S 15 23 90 9.74 21
2021-10-15 11:04 S 16 24 92 9.74 19
2021-10-15 10:04 SSW 11 21 92 9.74 19
2021-10-15 09:04 SSW 12 23 91 9.74 19
2021-10-15 08:04 SSW 14 21 92 9.74 17
2021-10-15 07:04 SSW 15 22 92 9.74 17
2021-10-15 06:04 SSW 12 20 92 9.74 15
2021-10-15 05:04 SSW 10 17 91 9.74 15
2021-10-15 04:04 SW 12 18 91 9.74 14
2021-10-15 03:04 SSW 10 17 91 9.74 15
2021-10-15 02:04 SW 10 17 91 9.74 15
2021-10-15 01:04 SW 10 17 91 9.74 15
2021-10-15 00:04 SW 10 17 91 9.74 15
2021-10-14 23:04 WSW 15 21 91 9.74 15
2021-10-14 22:04 WSW 14 23 91 9.74 16
2021-10-14 21:04 SW 13 21 91 9.74 16
2021-10-14 20:04 SSW 12 19 92 9.74 16
2021-10-14 19:04 SW 13 19 91 9.74 16
2021-10-14 18:04 SW 12 24 91 9.74 15
2021-10-14 17:04 SSW 17 23 90 9.74 15
2021-10-14 16:04 SW 11 20 90 9.74 15
2021-10-14 15:04 SW 9 21 90 9.74 16
2021-10-14 14:04 SW 12 20 89 9.74 16
2021-10-14 13:04 SW 11 17 89 9.74 15
2021-10-14 12:04 WSW 7 12 88 9.74 18
2021-10-14 11:04 SW 8 12 89 9.74 17
2021-10-14 10:04 WSW 9 12 89 9.74 14
2021-10-14 09:04 WSW 8 13 90 9.74 14
2021-10-14 08:04 SW 10 15 90 9.74 14
2021-10-14 07:04 WSW 10 16 91 9.74 14
2021-10-14 06:04 WSW 9 16 91 9.74 14
2021-10-14 05:04 SW 8 11 91 9.74 15
2021-10-14 04:04 SSW 5 10 92 9.74 16
2021-10-14 03:04 SSW 8 14 92 9.74 16
2021-10-14 02:04 SSW 9 13 92 9.74 16
2021-10-14 01:04 SW 10 16 92 9.74 16
2021-10-14 00:04 SW 12 17 92 9.74 16
2021-10-13 23:04 SSW 10 15 92 9.74 16
2021-10-13 22:04 SSW 10 15 92 9.74 16
2021-10-13 21:04 SSW 6 16 92 9.74 16
2021-10-13 20:04 SSW 11 20 92 9.74 16
2021-10-13 19:04 SSW 11 20 92 9.74 16
2021-10-13 18:04 S 11 22 91 9.74 16
2021-10-13 17:04 SSW 10 23 91 9.74 17